[Date Prev][Date Next][Thread Prev][Thread Next] - [Date Index][Thread Index][Author Index]

2 Line ISS Keps 3-23



ISS
1 25544U 98067A   03082.48197109  .00014141  00000-0  18357-3 0  8090
2 25544  51.6353  90.6954 0008192   3.0099 157.0001 15.59082092247636



----
Via the sarex mailing list at AMSAT.ORG courtesy of AMSAT-NA.
To unsubscribe, send "unsubscribe sarex" to Majordomo@amsat.org



AMSAT Top AMSAT Home